Temp
21 21 20 20 20 20 20 20 20 20 20 20 21 21 20 20 21 21 20 20 20 20 20 20 20 20 20 20 20 20 20 20 20 20 20 21 21 21 21 22 21 21
21 21 20 20 20 20 20 20 21 21 21 21 21 20 20 20 20 21 20 21 21 20 20 20 20 20 20 20 20 20 20 20 20 20 20 21 21 21 21 21 21 21
21 21 21 20 20 20 20 21 21 21 21 21 21 21 20 20 20 20 20 21 21 21 21 21 20 20 20 20 20 20 20 20 20 20 21 21 21 21 21 21 21 21
21 21 21 21 20 20 20 21 21 21 21 21 21 21 20 20 20 20 20 21 21 21 21 21 21 21 20 21 21 21 21 20 20 20 21 21 21 21 21 20 20 21
21 21 22 21 21 21 20 20 21 21 21 21 21 20 20 20 20 20 21 21 21 21 21 21 21 21 21 21 21 21 21 21 20 20 21 21 21 21 21 21 20 20
22 21 22 22 21 21 21 20 21 21 21 21 21 20 20 20 20 20 21 21 21 21 21 21 21 21 21 21 21 21 21 21 21 21 21 21 21 21 21 21 21 20
22 22 22 22 21 21 21 21 20 20 21 21 21 21 20 20 20 20 21 21 21 21 21 21 21 21 21 21 21 21 21 21 21 21 21 21 21 21 21 20 20 20
22 22 22 22 21 21 21 21 20 20 20 21 21 21 21 20 20 20 20 21 21 21 21 22 22 21 21 21 21 21 21 21 21 21 21 21 21 21 21 20 20 20
21 21 21 22 22 21 20 20 21 20 21 21 21 21 21 21 21 20 20 21 21 21 21 21 21 21 21 21 21 21 21 21 21 21 21 21 21 21 21 20 20 20
20 20 20 21 21 21 20 20 20 21 21 21 21 21 21 21 21 21 21 21 21 21 21 21 21 21 21 21 22 22 21 21 21 21 21 21 21 21 21 21 21 21
20 20 20 20 20 20 20 20 20 21 21 21 21 21 21 21 21 21 21 21 21 21 21 21 21 21 21 21 21 22 22 22 21 21 21 21 21 21 21 21 21 21
20 20 20 20 20 20 20 20 21 21 21 21 21 21 21 21 21 21 21 21 21 22 22 21 21 21 21 21 21 22 22 22 22 21 21 21 21 22 22 22 22 22
20 21 21 21 20 20 20 21 21 21 21 21 21 21 21 21 21 21 21 22 22 22 22 21 21 21 21 21 22 22 22 22 22 22 22 22 22 22 22 22 22 22
20 20 21 21 21 21 21 21 21 21 21 22 22 22 22 22 22 22 22 22 22 22 22 22 22 21 21 21 22 22 22 22 22 22 22 22 22 23 23 23 23 23
20 20 21 21 21 21 21 21 21 21 22 22 22 22 22 22 22 22 22 22 22 22 22 22 22 22 22 22 22 23 23 23 23 22 22 22 22 23 23 23 23 23
20 20 20 20 20 21 21 21 21 21 22 22 22 22 22 22 22 22 22 22 22 22 22 22 22 23 23 23 23 23 23 23 23 23 23 22 22 22 23 23 22 22
19 19 20 20 20 20 21 21 21 21 22 22 22 22 22 22 22 22 22 22 22 22 22 22 22 22 23 23 23 23 23 23 23 23 23 23 23 23 23 23 22 22
19 19 20 20 21 21 21 21 21 21 21 21 22 22 22 22 22 22 22 22 22 22 22 23 23 23 23 23 23 23 23 23 23 23 23 23 23 23 23 23 23 23
19 19 19 20 20 21 21 21 21 21 21 21 21 22 22 22 22 22 22 22 22 22 22 22 22 22 22 22 22 22 22 22 22 22 22 23 23 23 23 23 23 23
19 19 19 19 20 20 20 21 21 21 21 21 21 21 21 22 22 22 22 22 22 22 22 21 21 21 22 22 22 22 22 22 22 22 22 22 22 23 23 23 23 23
18 18 18 19 19 20 20 20 20 21 21 21 21 21 21 21 22 22 22 22 22 22 22 22 22 21 21 21 21 21 21 22 22 22 22 22 22 22 22 22 22 22
17 18 18 19 19 19 19 19 20 20 20 20 20 21 21 21 21 21 21 22 22 22 22 22 22 22 22 21 21 21 21 21 21 21 22 22 22 22 22 22 22 22
17 17 18 18 18 18 18 18 19 19 19 19 20 20 20 20 20 21 21 21 21 21 21 21 21 22 22 22 22 22 22 21 21 21 21 21 22 22 22 22 22 22
16 17 17 17 17 17 17 18 18 18 19 19 19 20 20 20 20 20 20 20 21 21 21 20 20 21 21 21 22 22 22 22 22 22 21 21 21 22 22 22 22 22
17 17 16 16 16 16 16 17 17 18 18 19 19 19 19 20 20 20 20 20 20 20 20 20 20 20 21 21 21 21 21 21 22 22 22 22 22 22 21 21 22 22
17 17 17 17 16 16 16 16 17 17 18 18 19 19 19 19 19 19 19 19 19 19 19 19 19 20 21 21 21 20 20 20 21 21 21 21 21 21 21 21 21 21
Height
1588 1589 1590 1591 1591 1592 1593 1594 1595 1596 1597 1598 1599 1599 1600 1601 1601 1602 1603 1603 1604 1605 1605 1606 1606 1607 1608 1608 1609 1609 1609 1610 1611 1611 1612 1612 1613 1613 1614 1614 1614 1614
1587 1588 1589 1590 1591 1591 1592 1593 1594 1595 1597 1598 1599 1599 1600 1601 1601 1602 1603 1603 1604 1605 1605 1606 1606 1607 1607 1608 1608 1609 1609 1610 1610 1611 1611 1611 1612 1613 1613 1614 1614 1614
1585 1586 1587 1589 1590 1590 1591 1592 1593 1594 1596 1597 1598 1599 1600 1600 1601 1601 1602 1603 1603 1604 1605 1605 1606 1606 1607 1607 1608 1609 1609 1609 1610 1610 1611 1611 1611 1612 1612 1612 1613 1613
1583 1585 1586 1587 1589 1590 1591 1592 1593 1593 1594 1596 1597 1598 1598 1599 1600 1601 1601 1602 1603 1604 1604 1605 1606 1606 1607 1607 1608 1608 1609 1609 1610 1610 1610 1610 1611 1611 1611 1611 1612 1612
1581 1583 1584 1586 1587 1588 1590 1591 1592 1593 1593 1595 1596 1597 1597 1598 1599 1600 1600 1601 1602 1603 1604 1604 1605 1606 1606 1607 1607 1608 1608 1609 1609 1609 1610 1610 1610 1610 1610 1611 1611 1611
1579 1580 1582 1584 1585 1586 1588 1589 1590 1592 1592 1594 1595 1596 1596 1597 1598 1599 1600 1600 1601 1602 1602 1603 1604 1605 1606 1606 1607 1607 1608 1608 1608 1609 1609 1610 1610 1610 1610 1610 1610 1611
1576 1578 1580 1582 1583 1584 1586 1587 1589 1590 1592 1593 1594 1595 1596 1596 1597 1598 1599 1600 1600 1601 1602 1602 1603 1604 1605 1605 1606 1606 1607 1607 1608 1608 1609 1609 1609 1609 1609 1609 1610 1610
1575 1577 1578 1580 1581 1583 1584 1586 1587 1589 1590 1592 1592 1593 1594 1595 1596 1597 1598 1599 1600 1600 1601 1602 1603 1603 1604 1605 1605 1606 1606 1606 1607 1607 1608 1608 1608 1609 1609 1609 1609 1609
1573 1575 1577 1578 1580 1581 1583 1585 1586 1587 1589 1591 1591 1593 1593 1594 1595 1596 1597 1598 1599 1600 1600 1601 1602 1602 1603 1604 1604 1605 1605 1606 1606 1606 1607 1607 1607 1608 1608 1608 1608 1608
1572 1574 1576 1577 1578 1580 1582 1583 1585 1586 1588 1589 1591 1592 1593 1594 1595 1595 1597 1597 1598 1599 1600 1600 1601 1601 1602 1603 1603 1604 1604 1605 1605 1605 1606 1606 1607 1607 1607 1607 1607 1607
1571 1572 1574 1576 1577 1579 1581 1583 1584 1585 1587 1588 1589 1591 1592 1593 1594 1594 1595 1596 1597 1598 1599 1600 1600 1601 1602 1602 1602 1603 1603 1604 1605 1605 1605 1605 1606 1606 1606 1606 1606 1606
1569 1571 1573 1575 1576 1577 1579 1581 1583 1584 1585 1586 1587 1589 1590 1592 1592 1593 1594 1595 1596 1597 1598 1599 1599 1600 1601 1601 1602 1602 1602 1603 1603 1604 1604 1604 1604 1605 1605 1605 1605 1605
1567 1570 1572 1573 1575 1577 1578 1579 1580 1582 1584 1584 1585 1587 1588 1590 1591 1591 1592 1593 1595 1595 1596 1597 1598 1599 1599 1600 1601 1601 1601 1602 1602 1603 1603 1603 1603 1603 1604 1604 1604 1604
1567 1569 1570 1572 1574 1575 1577 1578 1579 1580 1582 1582 1583 1584 1586 1587 1588 1589 1590 1591 1593 1593 1594 1595 1596 1597 1598 1598 1599 1600 1600 1600 1600 1601 1601 1602 1602 1602 1603 1603 1603 1603
1566 1567 1568 1570 1572 1573 1575 1577 1578 1579 1580 1581 1582 1583 1584 1585 1586 1587 1588 1589 1590 1590 1592 1593 1593 1594 1595 1596 1596 1597 1598 1598 1599 1599 1599 1600 1600 1601 1601 1601 1602 1602
1564 1566 1567 1568 1570 1571 1573 1574 1576 1577 1578 1579 1581 1581 1583 1584 1585 1586 1586 1587 1587 1588 1589 1590 1590 1591 1592 1593 1594 1594 1595 1596 1597 1597 1597 1598 1598 1599 1599 1600 1600 1601
1563 1564 1565 1566 1567 1568 1569 1571 1572 1574 1575 1577 1579 1580 1581 1582 1583 1584 1585 1586 1586 1587 1587 1588 1588 1589 1590 1591 1592 1592 1593 1594 1594 1595 1595 1596 1596 1597 1598 1598 1599 1599
1562 1563 1563 1564 1565 1566 1566 1567 1569 1570 1572 1575 1576 1578 1579 1580 1581 1583 1584 1584 1585 1585 1586 1586 1587 1588 1589 1590 1590 1591 1592 1592 1593 1594 1594 1594 1595 1595 1596 1597 1597 1598
1562 1562 1562 1562 1563 1564 1565 1566 1567 1568 1570 1572 1573 1575 1577 1578 1579 1581 1582 1583 1583 1584 1585 1585 1586 1587 1588 1588 1589 1590 1591 1591 1592 1593 1593 1594 1594 1594 1595 1595 1596 1596
1560 1560 1560 1560 1560 1561 1563 1564 1566 1567 1568 1569 1570 1572 1574 1575 1577 1578 1580 1581 1582 1582 1584 1584 1586 1587 1588 1589 1589 1589 1590 1590 1590 1591 1591 1592 1593 1593 1594 1594 1594 1595
1557 1557 1557 1558 1558 1559 1560 1561 1563 1564 1566 1567 1568 1569 1571 1572 1574 1576 1577 1578 1579 1580 1581 1583 1585 1587 1587 1586 1587 1588 1589 1589 1589 1589 1589 1590 1590 1591 1592 1592 1593 1593
1554 1554 1556 1557 1557 1557 1558 1559 1561 1562 1564 1565 1566 1567 1569 1570 1571 1573 1574 1575 1576 1577 1578 1580 1583 1583 1581 1581 1583 1584 1586 1587 1587 1588 1588 1588 1588 1588 1589 1589 1590 1590
1553 1554 1556 1556 1556 1556 1557 1559 1560 1561 1562 1563 1564 1565 1566 1567 1569 1570 1571 1572 1573 1574 1575 1577 1578 1577 1577 1579 1580 1580 1581 1582 1582 1583 1583 1584 1584 1585 1586 1586 1586 1587
1557 1557 1557 1557 1558 1559 1559 1560 1560 1561 1561 1561 1562 1564 1564 1565 1566 1567 1568 1569 1570 1571 1572 1573 1573 1573 1574 1576 1576 1576 1577 1577 1577 1577 1577 1578 1578 1579 1581 1582 1582 1582
1559 1560 1560 1560 1561 1561 1561 1560 1560 1560 1560 1560 1561 1562 1562 1563 1564 1565 1565 1566 1567 1568 1569 1569 1569 1570 1571 1572 1572 1573 1573 1574 1574 1574 1573 1574 1574 1574 1575 1575 1576 1577
1559 1559 1560 1560 1560 1560 1559 1558 1558 1558 1558 1559 1559 1560 1560 1561 1561 1562 1562 1563 1563 1564 1565 1565 1566 1567 1568 1569 1569 1570 1570 1571 1572 1571 1570 1571 1570 1569 1569 1569 1569 1571
Wind_Speed
20 21 22 19 18 18 17 16 15 12 11 10 10 10 9 10 11 10 10 10 10 10 11 10 10 11 12 12 13 12 10 10 11 10 10 10 11 10 10 13 14 12
21 21 22 21 20 19 18 16 16 15 13 12 11 10 10 10 11 11 11 11 10 10 11 10 11 12 12 12 13 11 10 11 10 10 10 9 11 11 10 13 14 12
22 21 21 22 22 20 18 16 15 15 14 12 11 11 11 11 11 11 12 12 11 11 10 11 11 11 11 12 12 10 10 11 10 10 10 9 10 12 11 11 11 11
22 22 21 21 22 20 19 17 15 15 15 13 12 12 11 11 12 12 13 13 12 12 11 11 11 11 11 11 12 11 10 11 11 10 10 9 9 11 12 12 10 9
22 22 21 21 21 20 20 19 17 16 16 14 14 13 12 12 12 13 14 13 12 13 12 12 11 12 12 11 12 12 11 11 11 10 10 9 9 9 9 11 11 10
23 23 21 21 20 20 20 20 18 17 17 16 15 15 15 14 13 13 13 13 14 13 13 13 13 13 12 12 12 12 12 12 11 10 10 9 9 9 8 8 9 11
24 23 22 21 20 20 19 19 19 18 17 17 16 16 17 16 15 14 14 14 15 14 14 13 14 14 13 13 13 12 12 13 11 10 10 10 10 10 9 8 7 9
22 22 23 22 20 20 19 18 19 18 17 18 18 18 18 18 18 17 16 15 16 16 15 14 14 14 15 14 14 13 13 13 12 12 11 11 11 11 10 10 9 10
20 19 22 23 22 21 21 19 19 19 18 18 19 18 18 18 20 20 18 16 16 16 16 15 15 15 15 15 15 15 14 13 13 13 12 12 12 12 11 12 12 12
22 20 21 23 23 23 22 21 20 20 20 19 19 19 18 18 19 20 19 18 17 17 17 16 16 16 15 15 15 15 15 15 15 14 13 12 12 12 12 12 13 13
25 24 23 24 24 24 23 22 21 21 21 20 20 20 20 19 19 19 19 19 19 18 18 17 17 17 17 16 16 16 15 15 15 15 14 13 13 14 14 13 14 14
28 27 25 24 25 25 24 23 22 21 21 20 20 21 21 21 20 19 19 19 19 19 19 19 19 19 18 17 16 16 16 16 15 16 16 15 14 15 15 14 14 14
28 28 27 26 25 25 25 24 23 22 22 21 20 20 22 23 22 21 20 19 19 19 19 19 20 21 21 20 18 17 17 17 16 16 17 17 16 15 15 15 15 14
27 28 28 27 24 24 25 24 21 22 23 24 23 21 20 22 25 24 22 20 19 18 18 18 20 22 22 22 21 19 18 18 17 16 17 18 18 17 16 16 15 15
26 28 29 27 25 23 25 24 21 21 23 23 25 26 22 19 23 25 24 23 21 20 19 18 19 20 22 23 22 21 20 19 19 19 18 18 19 18 18 17 16 16
24 26 26 26 25 23 23 23 22 22 22 21 22 27 28 23 22 24 26 25 24 22 21 20 20 19 20 21 22 21 21 20 21 21 21 20 20 20 19 18 17 16
20 21 23 23 24 24 24 24 23 23 23 21 19 23 29 28 25 25 26 26 25 25 24 22 21 21 20 20 21 22 22 22 22 22 23 23 23 22 22 21 20 19
15 17 19 22 24 25 25 25 25 25 25 23 19 19 24 28 28 27 27 26 24 25 26 25 23 21 21 21 21 21 23 23 23 23 24 25 26 26 25 24 23 22
10 11 14 17 20 22 23 24 25 26 27 25 23 20 21 26 28 28 28 27 25 23 25 27 26 24 23 22 21 20 21 22 24 24 25 25 27 28 28 28 27 26
11 11 12 15 16 17 19 20 22 26 28 27 26 24 23 25 27 28 29 28 27 25 24 24 24 23 23 23 22 21 21 22 24 25 25 26 26 27 28 29 30 30
15 14 13 14 15 16 17 18 19 23 26 28 28 28 27 26 27 28 29 29 29 29 28 27 25 22 20 19 19 20 22 25 27 29 29 29 28 28 28 29 29 30
11 14 13 14 16 18 18 19 19 20 23 26 27 28 28 27 27 27 28 29 29 30 30 31 30 28 26 24 22 21 21 22 25 29 33 34 34 32 31 30 29 30
5 10 12 14 17 18 18 19 20 20 21 22 23 24 25 25 25 25 26 27 28 29 29 29 29 31 32 32 31 29 28 26 26 27 31 34 36 36 35 34 33 32
3 4 5 8 14 16 17 19 20 19 19 18 19 20 22 22 23 23 24 25 25 26 26 25 26 29 32 33 34 34 33 33 33 34 33 34 35 35 36 36 36 35
6 4 3 1 5 9 13 15 16 18 18 18 18 18 19 21 22 22 22 23 24 24 23 23 25 28 30 31 32 32 31 31 34 36 36 35 35 35 35 36 36 37
5 5 4 3 2 2 5 8 10 13 15 16 17 18 18 19 20 21 21 21 21 21 20 21 25 28 29 29 29 29 28 27 28 31 32 32 32 33 34 36 36 37
Wind_Direction
204 198 190 192 200 203 205 204 207 209 208 211 209 203 199 199 198 195 194 197 194 196 198 196 201 202 196 198 203 200 195 200 205 204 208 210 202 204 201 184 181 184
206 205 198 195 199 204 206 204 204 206 206 207 204 202 202 202 201 196 197 200 195 197 200 194 197 201 198 201 205 201 200 206 206 201 206 211 207 207 200 193 200 199
206 208 205 200 201 204 206 205 203 204 207 205 200 201 202 203 203 197 199 202 197 198 201 195 196 200 200 203 204 200 203 209 208 204 204 206 209 210 201 197 208 209
206 209 209 206 205 205 205 208 207 204 206 205 201 201 203 207 208 203 203 201 197 201 203 199 199 200 201 203 201 198 202 207 208 208 204 201 208 210 203 201 205 209
208 209 209 208 208 206 205 209 211 206 205 205 202 201 206 214 216 212 210 204 201 205 204 200 203 204 202 204 203 199 200 204 207 210 208 202 207 211 206 205 204 204
210 210 209 208 209 209 208 209 211 209 208 206 202 200 205 213 219 219 216 209 207 211 208 203 207 209 206 206 206 203 203 206 206 212 217 209 207 212 204 202 206 206
212 211 210 208 208 211 210 207 209 213 212 207 205 204 204 209 217 224 226 218 211 215 216 211 209 211 212 210 210 210 208 208 208 210 219 216 214 216 204 201 221 220
216 213 212 211 208 208 209 206 208 215 213 207 208 210 209 209 214 222 230 225 216 216 220 220 216 215 216 214 212 214 213 212 214 214 214 215 219 223 212 208 228 235
219 219 215 214 208 204 208 209 210 214 215 211 211 216 217 215 216 222 229 230 224 220 220 224 224 222 223 222 217 217 216 217 223 222 218 219 223 228 226 220 226 234
215 220 217 215 210 204 207 212 212 213 217 217 214 217 223 224 222 223 228 231 229 225 222 224 229 229 231 232 228 223 220 219 227 229 224 226 228 230 232 231 232 237
210 214 212 211 209 206 206 212 215 215 219 221 217 217 223 228 229 228 230 232 232 230 227 225 231 235 236 238 238 234 229 224 227 232 232 231 232 234 235 235 237 240
210 214 213 209 207 205 204 207 213 218 223 225 221 217 219 226 233 234 234 235 236 235 233 230 232 237 239 241 242 241 239 234 230 233 238 239 238 238 237 239 242 243
213 215 215 214 211 206 204 203 206 215 224 230 230 223 218 222 231 239 240 241 243 242 239 236 234 237 241 243 244 244 243 244 240 236 238 243 245 245 241 241 244 248
220 217 215 217 215 210 208 207 205 210 218 227 234 234 228 221 224 234 241 244 247 248 247 245 241 240 241 243 246 246 244 246 248 244 241 243 245 247 246 244 245 248
226 223 220 220 218 212 210 211 211 211 215 222 229 234 237 232 224 228 236 241 245 248 249 249 248 246 244 243 245 246 245 246 249 250 249 248 248 248 247 247 248 251
226 224 221 218 215 213 212 213 215 214 218 227 229 226 229 231 226 225 231 239 244 246 248 248 250 253 251 248 247 247 246 245 247 251 254 253 254 255 254 254 255 257
217 218 218 216 213 211 213 217 218 216 219 229 231 224 224 226 224 222 227 236 244 248 251 251 252 257 261 259 256 252 250 248 246 248 252 255 257 259 260 261 261 263
202 209 214 218 217 216 217 218 217 218 222 228 229 225 224 224 223 221 224 230 237 243 248 252 256 263 268 269 269 264 260 257 253 251 250 251 254 257 260 262 263 263
199 205 208 214 218 220 223 222 220 221 224 228 229 227 225 224 222 223 224 227 229 232 238 244 251 259 265 270 274 275 272 268 266 265 261 257 256 256 258 261 263 264
211 212 211 212 215 218 222 224 225 226 228 230 231 230 229 227 225 226 226 227 228 229 230 234 240 250 258 264 270 275 277 275 273 272 271 270 268 265 263 263 264 265
218 222 221 218 220 222 224 225 224 226 229 232 232 231 231 230 230 231 231 229 229 231 233 234 238 246 254 261 267 272 274 274 273 272 272 273 273 274 272 270 269 268
227 230 231 229 228 227 229 231 230 229 229 231 233 234 234 233 233 234 234 234 233 233 235 236 239 246 251 254 258 262 266 270 272 271 270 270 272 273 274 274 274 272
238 238 243 246 244 241 240 239 238 236 236 236 237 238 239 239 240 239 238 237 236 237 239 240 242 245 248 250 253 255 256 261 265 265 264 263 266 269 271 272 272 271
128 216 244 249 246 248 250 248 247 247 248 249 248 246 247 247 247 247 246 243 242 241 242 244 246 246 245 247 249 249 250 253 256 259 261 260 259 260 264 268 270 269
98 109 105 174 230 237 239 242 246 250 252 254 255 254 253 250 249 250 250 249 248 246 245 246 247 245 245 246 248 250 255 257 256 258 262 265 264 260 259 261 265 267
67 77 80 61 9 277 247 242 241 242 246 250 253 254 254 253 252 252 252 252 252 251 252 252 250 249 248 247 248 254 261 265 264 262 265 269 271 268 263 259 260 263